Location: 22
(39.7117°N, 89.5929°W)
Time: 09:15:09
(UTC-05:00)

Transit 2A - Pass Details

Date: 07 August 2024
Orbit: 590 x 961 km, 66.7° (Epoch: 13 September)

Event Time Altitude Azimuth Distance (km) Brightness Sun altitude
Rises 12:25:49 0° 339° (NNW) 3,637 9.2 65.0°
Reaches altitude 10° 12:28:55 10° 352° (N) 2,701 8.7 65.2°
Maximum altitude 12:34:01 25° 46° (NE) 1,849 8.2 65.5°
Drops below altitude 10° 12:39:01 10° 99° (E) 2,647 9.1 65.8°
Sets 12:42:00 0° 113° (ESE) 3,549 9.6 65.9°
